ブルーンジェス彗星

C/2012 C2 ( Bruenjes )

English version
Home page
Updated on November 17, 2012

---------------------------------------------------------------------

・ プロフィール

発見日 2012年2月11日
発見光度 15.3等
発見者 Manfred Bruenjes (Warrensburg, MO, USA)

・ 写真集

・ 軌道要素

Epoch 2012 Mar. 14.0 TT = JDT 2456000.5
T 2012 Mar. 12.65302 TT                                 MPC
q   0.8021717            (2000.0)            P               Q
z  -0.0033771      Peri.   62.67885     +0.53383179     +0.80421686
 +/-0.0007177      Node   118.00106     +0.63279374     -0.58488798
e   1.0027090      Incl.  162.78833     +0.56088832     -0.10555234
From 211 observations 2012 Feb. 11-27, mean residual 0".6.

・ 星図

・ 光度変化

        m1 = 60 + 5 logΔ + 500 log r(t + 25)

        ※ 灰色の曲線は、m1 = 12.5 + 5 logΔ + 10.0 log r の光度曲線です。

---------------------------------------------------------------------

軌道要素はM.P.E.C. 2012-U109に掲載されたものです。
星図はステラナビゲータ Ver.8 (アストロアーツ) で作成したものです。
光度グラフはComet for Windowsで作成したものです。

---------------------------------------------------------------------

Copyright(C) Seiichi Yoshida (comet@aerith.net). All rights reserved.